CZ-6A DEB, 54304

Orbit data source: Space-Track

CZ-6A DEB, 54304 is space debris in SSO originally from a launch on Fri, 11 Nov 2022 UTC launched from the Taiyaun Space Center, China (TSC). Debris objects in space refer to the collection of defunct objects orbiting the Earth. Examples of debris include non-operational satellites, rocket bodies, and fragments generated from explosions, collisions, or faulty payload assembly.

Loading next visibility...
Identifier
54304, 2022-151AX
Orbit
SSO
Country
Flag of CNCN / PRC
Related business
Manufacturer
SAST
Mission
Spacecraft
Bus & Motor
Unknown
Mass
Unknown
Launch date (UTC)
2022-11-11 (4 years ago)
Launch vehicle
Unknown
Launch site
Taiyaun Space Center, China (TSC)
Object type
Payload
Rocket body
Debris
Shape & HBR
Unknown shape, 0.1 m
Radar Cross Section
Medium (>0.1 m² and <1 m²)

Expand to show TLE details & history
Last TLE update: 13 hours ago

TLE from 13 hours ago
0 CZ-6A DEB
1 54304U 22151AX  26263.28087862  .00001101  00000-0  56765-3 0  9992
2 54304  98.8395 270.8851 0043390  42.7224 317.7310 14.16718843198284
Epoch: 2026-09-20T06:44Z
TLE epoch observation values (Epoch: 2026-09-20T06:44:27.912Z)
Latitude
-0.00007°
Longitude
170.59149°
Altitude
816.269 km
Speed
7.457 km/s
True Right ascension
18h 03m 32s
True Declination
0° 00' 00"
Sunlit
Object was in daylight at epoch
Visualization orbit readout
Latitude
Unknown
Longitude
Unknown
Altitude
Unknown
Speed
Unknown
Apparent Right ascension
Unknown
Apparent Declination
Unknown
Sunlit
N/A
Visualization observer readout
Local Sidereal Time
12:55:28
Azimuth
Unknown
Elevation
Unknown
Doppler factor
Unknown
Orbital elements
Apogee altitude
864.932 km
Perigee altitude
802.348 km
Semi-major axis
7,211.777 km
Eccentricity
0.00434
Inclination
98.8395°
RAAN
270.8851°
Arg. of periapsis
42.7224°
True anomaly
317.39522°
Mean anomaly
317.731°
Eccentric anomaly
317.56325°
Mean motion
3.54389 °/min
Orbital period
101.58 mins
BSTAR
0.00056765
Loading maneuver chart data...
Computing Atmospheric mass density...
Loading historical data...
Loading historical data...
Loading historical data...
Loading historical data...
Loading historical data...
Loading historical data...
Loading historical data...

Documentation

Showing up to 5 results
|